Fosston, MN

9:01 PM CDT on July 25, 2017 (GMT -0500)
Fosston Municipal

Weather History for KFSE - October, 2013

Change the Weather History Date:

Thursday, October 3, 2013

  Actual Average Record
Temperature  
Mean Temperature 48 °F -  
Max Temperature 57 °F 61 °F 82 °F (2011)
Min Temperature 39 °F 37 °F 15 °F (1989)
Degree Days  
Heating Degree Days 17    
Moisture  
Dew Point 43 °F    
Average Humidity 83    
Maximum Humidity 100    
Minimum Humidity 63    
Precipitation  
Precipitation 0.00 in - - ()
Sea Level Pressure  
Sea Level Pressure 30.02 in    
Wind  
Wind Speed 3 mph (North)    
Max Wind Speed 14 mph    
Max Gust Speed -    
Visibility 10 miles    
Events Rain    
Averages and records for this station are not official NWS values.
T = Trace of Precipitation, MM = Missing Value Source: NWS Daily Summary

Daily Weather History Graph

Daily Weather History Graph

Search for Another Location

Airport or City:

Trip Planner

Search our weather history database for the weather conditions in past years. The results will help you decide how hot, cold, wet, or windy it might be!

Date:

Astronomy

Oct. 03, 2013 Rise Set
Actual Time 7:25 AM CDT 6:57 PM CDT
Civil Twilight 6:54 AM CDT 7:28 PM CDT
Nautical Twilight 6:18 AM CDT 8:04 PM CDT
Astronomical Twilight 5:42 AM CDT 8:40 PM CDT
Moon 5:56 AM CDT (10/3) 6:08 PM CDT (10/3)
Length of Visible Light 12h 33m
Length of Day
11h 32m
Waning Crescent, 2% of the Moon is Illuminated
Oct 3
Waning Crescent
Oct 4
New
Oct 11
First Quarter
Oct 18
Full
Oct 26
Last Quarter

Hourly Weather History & Observations

Time (CDT) Temp. Windchill Dew Point Humidity Pressure Visibility Wind Dir Wind Speed Gust Speed Precip Events Conditions
12:15 AM 44.6 °F - 41.0 °F 87% 29.99 in 10.0 mi Calm Calm - N/A   Clear
12:35 AM 42.8 °F - 39.2 °F 87% 29.99 in 10.0 mi Calm Calm - N/A   Clear
12:55 AM 41.0 °F 39.0 °F 39.2 °F 93% 29.98 in 10.0 mi NNW 3.5 mph - N/A   Clear
1:15 AM 39.2 °F - 37.4 °F 93% 29.99 in 10.0 mi Calm Calm - N/A   Clear
1:35 AM 39.2 °F - 37.4 °F 93% 29.99 in 10.0 mi Calm Calm - N/A   Clear
1:55 AM 39.2 °F - 37.4 °F 93% 29.99 in 10.0 mi Calm Calm - N/A   Clear
2:15 AM 39.2 °F - 37.4 °F 93% 29.99 in 10.0 mi Calm Calm - N/A   Clear
2:35 AM 39.2 °F - 37.4 °F 93% 29.99 in 10.0 mi Calm Calm - N/A   Clear
2:55 AM 39.2 °F - 39.2 °F 100% 29.98 in 10.0 mi Calm Calm - N/A   Clear
3:15 AM 39.2 °F - 37.4 °F 93% 29.98 in 10.0 mi Calm Calm - N/A   Clear
3:35 AM 41.0 °F - 39.2 °F 93% 29.98 in 10.0 mi Calm Calm - N/A   Clear
3:55 AM 39.2 °F - 37.4 °F 93% 29.98 in 10.0 mi Calm Calm - N/A   Clear
4:15 AM 41.0 °F - 37.4 °F 87% 29.98 in 10.0 mi Calm Calm - N/A   Clear
4:35 AM 39.2 °F - 37.4 °F 93% 29.98 in 10.0 mi Calm Calm - N/A   Clear
4:55 AM 41.0 °F - 37.4 °F 87% 29.99 in 10.0 mi Calm Calm - N/A   Clear
5:15 AM 39.2 °F - 37.4 °F 93% 29.99 in 5.0 mi Calm Calm - N/A   Clear
5:35 AM 39.2 °F - 37.4 °F 93% 29.99 in 10.0 mi Calm Calm - N/A   Clear
5:55 AM 39.2 °F - 37.4 °F 93% 29.98 in 10.0 mi Calm Calm - N/A   Clear
6:15 AM 41.0 °F - 39.2 °F 93% 30.00 in 10.0 mi Calm Calm - N/A   Clear
6:35 AM 42.8 °F - 41.0 °F 93% 30.01 in 10.0 mi Calm Calm - N/A   Clear
6:55 AM 42.8 °F - 39.2 °F 87% 30.01 in 10.0 mi Calm Calm - N/A   Clear
7:15 AM 42.8 °F - 39.2 °F 87% 30.00 in 10.0 mi Calm Calm - N/A   Clear
7:35 AM 42.8 °F - 39.2 °F 87% 29.99 in 10.0 mi Calm Calm - N/A   Clear
7:55 AM 42.8 °F - 39.2 °F 87% 29.99 in 10.0 mi Calm Calm - N/A   Clear
8:15 AM 44.6 °F 41.4 °F 39.2 °F 81% 29.98 in 10.0 mi ENE 5.8 mph - N/A   Clear
8:35 AM 44.6 °F 41.4 °F 41.0 °F 87% 30.00 in 10.0 mi NNE 5.8 mph - N/A   Clear
8:55 AM 44.6 °F 41.4 °F 41.0 °F 87% 30.00 in 10.0 mi NE 5.8 mph - N/A   Clear
9:15 AM 46.4 °F - 42.8 °F 87% 30.02 in 10.0 mi Calm Calm - N/A   Clear
9:35 AM 48.2 °F - 44.6 °F 87% 30.05 in 10.0 mi Calm Calm - N/A   Clear
9:55 AM 50.0 °F - 46.4 °F 87% 30.04 in 10.0 mi Calm Calm - N/A   Clear
10:15 AM 51.8 °F - 46.4 °F 82% 30.04 in 10.0 mi Calm Calm - N/A   Clear
10:35 AM 51.8 °F - 48.2 °F 88% 30.03 in 10.0 mi Calm Calm - N/A   Clear
10:55 AM 51.8 °F - 48.2 °F 88% 30.03 in 10.0 mi Calm Calm - N/A   Clear
11:15 AM 51.8 °F - 48.2 °F 88% 30.03 in 10.0 mi Calm Calm - N/A   Clear
11:35 AM 53.6 °F - 50.0 °F 88% 30.03 in 10.0 mi Calm Calm - N/A   Clear
11:55 AM 55.4 °F - 51.8 °F 88% 30.03 in 10.0 mi ENE 6.9 mph - N/A   Clear
12:15 PM 55.4 °F - 48.2 °F 77% 30.02 in 10.0 mi NE 5.8 mph - N/A   Clear
12:34 PM 55.4 °F - 48.2 °F 77% 30.01 in 10.0 mi NE 4.6 mph - N/A   Clear
12:55 PM 55.4 °F - 46.4 °F 72% 30.01 in 10.0 mi NNE 6.9 mph - N/A   Clear
1:15 PM 57.2 °F - 46.4 °F 67% 30.01 in 10.0 mi NNE 6.9 mph - N/A   Scattered Clouds
1:35 PM 57.2 °F - 46.4 °F 67% 30.00 in 10.0 mi North 10.4 mph - N/A   Clear
1:55 PM 57.2 °F - 46.4 °F 67% 30.00 in 10.0 mi NNE 8.1 mph - N/A   Mostly Cloudy
2:15 PM 57.2 °F - 44.6 °F 63% 30.01 in 10.0 mi North 6.9 mph - N/A   Mostly Cloudy
2:35 PM 57.2 °F - 44.6 °F 63% 30.01 in 10.0 mi North 8.1 mph - N/A   Mostly Cloudy
2:55 PM 57.2 °F - 44.6 °F 63% 30.03 in 10.0 mi North 11.5 mph - N/A   Scattered Clouds
3:15 PM 55.4 °F - 44.6 °F 67% 30.02 in 10.0 mi North 12.7 mph - N/A   Overcast
3:35 PM 55.4 °F - 44.6 °F 67% 30.02 in 10.0 mi North 9.2 mph - N/A Rain Light Rain
3:54 PM 55.4 °F - 46.4 °F 72% 30.02 in 10.0 mi North 12.7 mph - N/A   Mostly Cloudy
4:15 PM 55.4 °F - 44.6 °F 67% 30.02 in 10.0 mi North 13.8 mph - N/A   Mostly Cloudy
4:35 PM 55.4 °F - 44.6 °F 67% 30.02 in 10.0 mi North 9.2 mph - N/A   Overcast
4:54 PM 53.6 °F - 44.6 °F 72% 30.03 in 10.0 mi North 6.9 mph - N/A   Overcast
5:15 PM 53.6 °F - 46.4 °F 77% 30.03 in 10.0 mi North 10.4 mph - N/A   Overcast
5:35 PM 53.6 °F - 46.4 °F 77% 30.03 in 10.0 mi Calm Calm - N/A   Overcast
5:54 PM 53.6 °F - 46.4 °F 77% 30.03 in 10.0 mi NNE 9.2 mph - N/A   Mostly Cloudy
6:15 PM 53.6 °F - 46.4 °F 77% 30.03 in 10.0 mi North 8.1 mph - N/A   Mostly Cloudy
6:35 PM 51.8 °F - 46.4 °F 82% 30.04 in 10.0 mi North 9.2 mph - N/A   Overcast
6:55 PM 51.8 °F - 46.4 °F 82% 30.04 in 10.0 mi North 6.9 mph - N/A   Overcast
7:15 PM 50.0 °F - 44.6 °F 82% 30.05 in 10.0 mi North 9.2 mph - N/A   Overcast
7:35 PM 50.0 °F - 44.6 °F 82% 30.06 in 10.0 mi NNW 9.2 mph - N/A   Overcast
7:55 PM 50.0 °F - 44.6 °F 82% 30.06 in 10.0 mi North 10.4 mph - N/A   Overcast
8:15 PM 48.2 °F - 42.8 °F 82% 30.06 in 10.0 mi North 11.5 mph - N/A   Scattered Clouds
8:35 PM 48.2 °F - 42.8 °F 82% 30.06 in 10.0 mi North 9.2 mph - N/A   Clear
8:55 PM 48.2 °F - 42.8 °F 82% 30.08 in 10.0 mi North 8.1 mph - N/A   Clear
9:15 PM 48.2 °F - 42.8 °F 82% 30.09 in 10.0 mi North 9.2 mph - N/A   Mostly Cloudy
9:35 PM 48.2 °F - 42.8 °F 82% 30.09 in 10.0 mi North 8.1 mph - N/A   Mostly Cloudy
9:55 PM 48.2 °F - 44.6 °F 87% 30.09 in 10.0 mi NNE 6.9 mph - N/A   Scattered Clouds
10:15 PM 48.2 °F - 44.6 °F 87% 30.09 in 10.0 mi North 6.9 mph - N/A   Clear
10:35 PM 48.2 °F - 42.8 °F 82% 30.10 in 10.0 mi Calm Calm - N/A   Clear
11:35 PM 48.2 °F - 42.8 °F 82% 30.10 in 10.0 mi Calm Calm - N/A   Clear
11:55 PM 46.4 °F 44.3 °F 44.6 °F 93% 30.10 in 10.0 mi North 4.6 mph - N/A   Clear